#timestamp,LO_Frequency,Hit,StdDev 
1512378015.8,286047000.5,N
1512378035.7,286047000.4,N
1512378055.5,286047000.7,N
1512378075.3,286046999.7,N
1512378095.2,286047000.5,N
1512378115.9,286047001.4,N
1512378135.7,286047004.4,Y
1512378155.6,286047004.3,P
1512378175.4,286047005.8,P
1512378195.3,286047000.0,N
1512378215.1,286046999.1,N
1512378216.0,286046999.1,N
1512378235.8,286046998.4,N
1512378255.7,286047000.5,N
1512378275.5,286046999.7,N
1512378295.3,286047000.0,N
1512378315.2,286046999.4,N
1512378335.0,286046999.0,N
1512378335.9,286046999.0,N
1512378355.8,286046997.0,N
1512378375.6,286046998.3,N
1512378395.4,286047002.2,N
1512378415.3,286047000.2,N
1512378435.1,286047000.1,N
1512378455.9,286046998.8,N
1512378475.7,286046999.1,N
1512378495.5,286046998.0,N
1512378515.4,286046996.8,N
1512378535.2,286047000.4,N
1512378555.0,286046998.9,N
1512378555.9,286046998.9,N
1512378575.8,286046999.0,N
1512378595.6,286046997.3,N
1512378615.5,286046998.6,N
1512378635.3,286046998.2,N
1512378655.1,286046999.5,N
1512378675.9,286046998.6,N
1512378695.7,286046998.2,N
1512378715.6,286046999.8,N
1512378735.4,286047000.4,N
1512378755.2,286047002.8,N
1512378775.1,286047000.6,N
1512378776.0,286047000.6,N
1512378795.8,286046998.1,N
1512378815.6,286046999.6,N
1512378835.5,286046998.0,N
1512378855.3,286046999.6,N
1512378875.2,286047001.2,N
1512378895.9,286047001.2,N
1512378915.7,286046999.0,N
1512378935.6,286046998.1,N
1512378955.4,286046999.7,N
1512378975.2,286047001.2,N
1512378995.1,286047000.4,N
1512378996.0,286047000.4,N
1512379015.8,286047002.8,N
1512379035.7,286047000.8,N
1512379055.5,286046998.1,N
1512379075.3,286047001.2,N
1512379095.2,286046998.4,N
1512379115.0,286046998.5,N
1512379115.9,286046998.5,N
1512379135.8,286047000.2,N
1512379155.6,286046998.6,N
1512379175.4,286046997.5,N
1512379195.3,286046997.0,N
1512379215.1,286046999.2,N
1512379235.9,286046998.1,N
1512379255.7,286047000.4,N
1512379275.5,286047000.7,N
1512379295.4,286046997.1,N
1512379315.2,286046999.5,N
1512379335.0,286046999.3,N
1512379335.9,286046999.3,N
1512379355.8,286046997.1,N
1512379375.6,286046998.6,N
1512379395.5,286047002.4,N
1512379415.3,286047003.7,N
1512379435.1,286046999.8,N
1512379455.9,286046998.7,N
1512379475.7,286046999.4,N
1512379495.5,286047000.2,N
1512379515.4,286047002.4,N
1512379535.2,286047004.4,N
1512379555.1,286047001.4,N
1512379556.0,286047001.4,N
1512379575.8,286046999.7,N
1512379595.6,286046999.7,N
1512379615.5,286046999.8,N
1512379635.3,286046998.7,N
1512379655.2,286047000.7,N
1512379675.9,286046998.8,N
1512379695.7,286046998.6,N
1512379715.6,286047000.8,N
1512379735.4,286046998.1,N
1512379755.2,286046998.5,N
1512379775.1,286046998.5,N
1512379776.0,286046998.5,N
1512379795.8,286047001.0,N
1512379815.7,286047000.7,N
1512379835.5,286046999.6,N
1512379855.3,286046997.3,N
1512379875.2,286046998.2,N
1512379895.0,286047002.5,N
1512379895.9,286047002.5,N
1512379915.7,286047000.3,N
1512379935.6,286046999.7,N
1512379955.4,286047002.3,N
1512379975.3,286047002.4,N
1512379995.1,286047000.1,N
1512379996.0,286047000.1,N
1512380015.8,286046999.4,N
1512380035.7,286046999.2,N
1512380055.5,286047000.5,N
1512380075.4,286047002.3,N
1512380095.2,286047002.4,N
1512380115.0,286047004.2,N
1512380115.9,286047004.2,N
1512380135.8,286047003.4,N
1512380155.6,286047000.1,N
1512380175.4,286046999.4,N
1512380195.3,286046999.2,N
1512380215.1,286046998.6,N
1512380235.9,286047000.4,N
1512380255.7,286046999.5,N
1512380275.5,286046999.1,N
1512380295.4,286046999.3,N
1512380315.2,286046999.0,N
1512380335.0,286047000.1,N
1512380335.9,286047000.1,N
1512380355.8,286047000.7,N
1512380375.6,286046996.5,N
1512380395.5,286046999.6,N
1512380415.3,286046996.7,N
1512380435.1,286046997.9,N
1512380455.9,286046995.9,N
1512380475.7,286046995.4,N
1512380495.6,286046998.9,N
1512380515.4,286046999.2,N
1512380535.2,286047002.3,N
1512380555.1,286047004.4,N
1512380556.0,286047004.4,N
1512380575.8,286047001.9,N
1512380595.6,286047004.4,N
1512380615.5,286047001.6,N
1512380635.3,286047000.3,N
1512380655.1,286047002.8,N
1512380675.9,286046997.0,N
1512380695.7,286046998.0,N
1512380715.6,286046995.2,N
1512380735.4,286046996.2,N
1512380755.2,286046995.7,N
1512380775.1,286046997.0,N
1512380776.0,286046997.0,N
1512380795.8,286047002.8,N
1512380815.7,286047001.3,N
1512380835.5,286047003.1,N
1512380855.3,286047001.6,N
1512380875.2,286047001.5,N
1512380895.0,286046999.8,N
1512380895.9,286046999.8,N
1512380915.8,286047002.0,N
1512380935.6,286047005.5,N
1512380955.4,286047011.9,Y
1512380975.3,286047005.0,P
1512380995.1,286047004.5,N
1512381015.9,286047003.6,N
1512381035.7,286047004.3,N
1512381055.5,286047001.9,N
1512381075.4,286047002.3,N
1512381095.2,286047001.2,N
1512381115.0,286047000.8,N
1512381115.9,286047000.8,N
1512381135.8,286047004.0,N
1512381155.6,286047011.9,Y
1512381175.5,286047001.3,P
1512381195.3,286047002.6,P
1512381215.1,286047002.5,P
1512381235.9,286046999.8,N
1512381255.7,286047001.2,N
1512381275.6,286046998.5,N
1512381295.4,286046997.6,N
1512381315.2,286046998.0,N
1512381335.1,286046997.4,N
1512381336.0,286046997.4,N
1512381355.8,286046996.5,N
1512381375.7,286046994.9,N
1512381395.5,286046995.8,N
1512381415.3,286046995.6,N
1512381435.2,286046995.5,N
1512381455.9,286046994.9,N
1512381475.7,286046997.2,N
1512381495.6,286046996.7,N
1512381515.4,286046997.7,N
1512381535.3,286046997.0,N
1512381555.1,286046996.5,N
1512381556.0,286046996.5,N
1512381575.8,286046999.9,N
1512381595.7,286047001.9,N
